[[{"header":{"parameterUnit":"m.s-1","parameterCategory":1,"la1":30.2991,"la2":30.254,"lo1":-89.0895,"lo2":-89.0444,"dy":0.0017,"dx":0.0017,"nx":28,"ny":28,"refTime":"2025-09-08T21:00:00:Z","depth":0,"parameterNumber":2,"parameterNumberName":"U-component_of_WINDS"},"data":[0,0,0,0,0,0,0,0,0,0,0,0,0,0,0,0,0,0,0,0,0,0,0,0,0,0,0,0,0,0,0,0,0,0,0,0,0,0,0,0,0,0,0,0,0,0,0,0,0,0,0,0,0,0,0,0,0,0,-3.6855,-3.6855,0,-3.6833,-3.6833,-3.6833,-3.6725,-3.6722,-3.672,-3.6717,-3.6697,-3.6698,-3.67,0,0,0,0,0,0,0,0,0,0,0,0,0,-3.6807,-3.6808,-3.6855,-3.6855,-3.6854,-3.6833,-3.6833,-3.6833,-3.6725,-3.6722,-3.6719,-3.6716,-3.6696,-3.6698,-3.67,0,0,0,0,0,0,0,0,0,0,0,0,0,-3.6811,-3.6809,-3.6855,-3.6798,-3.6793,-3.6833,-3.6833,-3.6833,-3.6726,-3.6722,-3.6718,-3.6715,-3.6695,-3.6698,-3.6701,-3.6794,0,0,-3.6709,-3.671,0,0,0,0,0,0,0,0,-3.6811,-3.6813,-3.6807,-3.6802,-3.6796,-3.6778,-3.6808,-3.682,-3.6727,-3.6752,-3.6717,-3.6713,-3.6727,-3.6727,-3.6731,-3.6793,-3.6792,-3.6709,-3.6711,-3.6712,-3.6713,0,0,0,0,0,0,0,-3.6811,-3.6813,-3.6846,-3.6807,-3.6801,-3.6775,-3.6771,-3.681,-3.6761,-3.6749,-3.6741,-3.674,-3.6723,-3.6729,-3.673,-3.6792,-3.6709,-3.6712,-3.6713,-3.6714,-3.6932,-3.6936,0,0,0,0,0,0,-3.6818,-3.6814,-3.6847,-3.6846,-3.6794,-3.6779,-3.6775,-3.6788,-3.676,-3.6752,-3.6743,-3.6735,-3.6726,-3.6727,-3.6729,-3.6838,-3.6712,-3.6715,-3.6716,-3.6928,-3.6933,-3.6938,0,0,0,0,0,0,-3.6817,-3.6822,-3.6848,-3.6827,-3.6829,-3.6784,-3.6799,-3.6789,-3.6794,-3.6756,-3.6747,-3.6758,-3.6723,-3.6725,-3.6779,-3.6835,-3.6716,-3.6718,-3.6923,-3.693,-3.6936,-3.7056,0,0,0,0,0,0,-3.6816,-3.6822,-3.6857,-3.6829,-3.683,-3.6898,-3.6803,-3.6792,-3.6799,-3.6788,-3.6767,-3.676,-3.672,-3.6776,-3.6782,-3.6837,-3.6721,-3.6918,-3.6926,-3.6934,-3.7047,-3.7065,-3.7082,0,0,0,0,0,-3.6815,-3.6891,-3.6859,-3.6863,-3.6872,-3.6901,-3.6902,-3.6855,-3.6804,-3.6839,-3.6815,-3.676,-3.6829,-3.6782,-3.6788,-3.6845,-3.6914,-3.6924,-3.6933,-3.7039,-3.7062,-3.7081,0,0,0,0,0,0,-3.6926,-3.6886,-3.685,-3.6919,-3.6915,-3.6883,-3.6925,-3.688,-3.689,-3.6879,-3.682,-3.6816,-3.688,-3.6868,-3.6817,-3.6935,-3.6862,-3.6874,-3.6941,-3.6962,-3.6979,-3.6981,-3.6723,0,0,0,0,0,-3.6959,-3.6985,-3.6949,-3.7014,-3.7014,-3.697,-3.6981,-3.6945,-3.6938,-3.6936,-3.6915,-3.6911,-3.6932,-3.6946,-3.6963,-3.7045,-3.7039,-3.7087,-3.7105,-3.7119,-3.7129,-3.7174,-3.7195,-3.6969,-3.6968,-3.6968,0,0,-3.7026,-3.7008,-3.7028,-3.7036,-3.7028,-3.7058,-3.6969,-3.7004,-3.7026,-3.6941,-3.6991,-3.6977,-3.6968,-3.7038,-3.7067,-3.7029,-3.7191,-3.7131,-3.7143,-3.7145,-3.7186,-3.7207,-3.7226,-3.6975,-3.6974,-3.6973,0,0,-3.7164,-3.7153,-3.7206,-3.72,-3.719,-3.7161,-3.7174,-3.715,-3.7137,-3.7187,-3.7124,-3.715,-3.7186,-3.7184,-3.7187,-3.7328,-3.7279,-3.7335,-3.7426,-3.747,-3.7488,-3.7503,-3.7555,-3.7574,-3.7345,-3.7346,-3.7346,0,-3.7249,-3.7291,-3.7239,-3.7279,-3.7285,-3.721,-3.7265,-3.7262,-3.7258,-3.7264,-3.7222,-3.7268,-3.7257,-3.7325,-3.736,-3.7365,-3.7379,-3.7337,-3.7489,-3.7504,-3.7518,-3.7566,-3.7586,-3.7353,-3.7352,-3.7351,-3.735,0,-3.7397,-3.7428,-3.7472,-3.747,-3.7482,-3.7529,-3.7485,-3.7503,-3.7467,-3.7443,-3.7496,-3.7481,-3.7494,-3.7508,-3.7472,-3.7572,-3.7549,-3.75,-3.7425,-3.7547,-3.7592,-3.761,-3.7362,-3.736,-3.7358,-3.7356,0,0,-3.7602,-3.7573,-3.7591,-3.759,-3.7574,-3.7597,-3.7642,-3.7655,-3.7672,-3.7673,-3.771,-3.7743,-3.7698,-3.7702,-3.7666,-3.7705,-3.7819,-3.765,-3.7649,-3.7683,-3.793,-3.7968,-3.799,-3.7787,-3.7791,-3.7793,-3.7931,0,-3.7735,-3.7809,-3.7765,-3.7846,-3.7875,-3.7805,-3.7845,-3.784,-3.782,-3.7842,-3.782,-3.7845,-3.7782,-3.7785,-3.782,-3.7798,-3.7868,-3.7787,-3.7822,-3.7824,-3.7827,-3.8013,-3.8053,-3.8184,-3.7948,-3.7951,-3.7953,0,-3.7899,-3.7908,-3.7992,-3.7973,-3.7983,-3.8019,-3.8029,-3.805,-3.8045,-3.8028,-3.8034,-3.7989,-3.8034,-3.7961,-3.8022,-3.7968,-3.798,-3.7972,-3.7976,-3.7977,-3.7896,-3.8021,-3.8224,-3.8244,-3.798,-3.7978,-3.7976,0,-3.8042,-3.8074,-3.8129,-3.8131,-3.811,-3.8137,-3.813,-3.812,-3.8132,-3.8141,-3.8148,-3.8162,-3.817,-3.8183,-3.8144,-3.8094,-3.8211,-3.8134,-3.8199,-3.82,-3.8226,-3.8225,-3.8435,-3.8234,-3.8234,-3.8233,-3.8233,0,-3.8195,-3.8249,-3.8193,-3.8227,-3.8287,-3.8237,-3.8298,-3.8283,-3.8276,-3.8307,-3.8248,-3.8279,-3.8225,-3.8251,-3.8221,-3.8278,-3.8281,-3.827,-3.8261,-3.8275,-3.8277,-3.8282,-3.8272,-3.8238,-3.8237,-3.8236,-3.8235,0,-3.8364,-3.8328,-3.8384,-3.836,-3.8356,-3.8401,-3.8381,-3.8412,-3.8389,-3.8429,-3.8436,-3.84,-3.8427,-3.839,-3.8413,-3.8394,-3.8471,-3.8448,-3.8473,-3.8466,-3.8534,-3.8528,-3.8755,-3.8782,-3.8563,-3.8565,-3.8567,0,-3.8463,-3.8504,-3.8485,-3.8502,-3.8498,-3.8525,-3.8537,-3.849,-3.8505,-3.8504,-3.8536,-3.8558,-3.8574,-3.8621,-3.8598,-3.8616,-3.8594,-3.8672,-3.8596,-3.861,-3.8596,-3.8595,-3.8599,-3.8688,-3.8691,-3.8693,-3.8694,0,-3.8645,-3.8626,-3.8645,-3.8659,-3.8675,-3.8684,-3.8688,-3.8706,-3.8657,-3.8677,-3.8704,-3.8717,-3.8742,-3.8766,-3.8778,-3.8771,-3.8726,-3.8719,-3.8735,-3.8749,-3.8762,-3.8757,-3.8516,-3.8714,-3.8712,-3.871,-3.8709,-3.8708,-3.8782,-3.8816,-3.8809,-3.8833,-3.8832,-3.8838,-3.8867,-3.8848,-3.887,-3.8886,-3.8858,-3.8894,-3.8889,-3.8902,-3.8901,-3.8929,-3.8895,-3.8918,-3.8924,-3.893,-3.8941,-3.8758,-3.8931,-3.893,-3.893,-3.8929,-3.8929,0,-3.8962,-3.8954,-3.8977,-3.8986,-3.9005,-3.8961,-3.8964,-3.8984,-3.9016,-3.9016,-3.9033,-3.9066,-3.9089,-3.9069,-3.9088,-3.9115,-3.9095,-3.9122,-3.9119,-3.9119,-3.897,-3.8954,-3.9138,-3.9138,-3.9138,-3.9138,-3.9138,-3.9138,-3.9057,-3.9112,-3.9093,-3.9148,-3.914,-3.9174,-3.9181,-3.9187,-3.9187,-3.9226,-3.9246,-3.9232,-3.9225,-3.9244,-3.9264,-3.9257,-3.9268,-3.9303,-3.9289,-3.915,-3.9129,-3.911,-3.9095,-3.9305,-3.9305,-3.9436,-3.9437,-3.9438]},{"header":{"parameterUnit":"m.s-1","parameterCategory":1,"la1":30.2991,"la2":30.254,"lo1":-89.0895,"lo2":-89.0444,"dy":0.0017,"dx":0.0017,"nx":28,"ny":28,"refTime":"2025-09-08T21:00:00:Z","depth":0,"parameterNumber":3,"parameterNumberName":"V-component_of_WINDS"},"data":[0,0,0,0,0,0,0,0,0,0,0,0,0,0,0,0,0,0,0,0,0,0,0,0,0,0,0,0,0,0,0,0,0,0,0,0,0,0,0,0,0,0,0,0,0,0,0,0,0,0,0,0,0,0,0,0,0,0,1.5323,1.5323,0,1.5361,1.5361,1.5362,1.5434,1.5435,1.5437,1.5438,1.5473,1.5473,1.5473,0,0,0,0,0,0,0,0,0,0,0,0,0,1.5309,1.5309,1.5323,1.5323,1.5324,1.5361,1.5361,1.5362,1.5433,1.5435,1.5437,1.5438,1.5473,1.5473,1.5473,0,0,0,0,0,0,0,0,0,0,0,0,0,1.5328,1.5309,1.5323,1.5364,1.5368,1.5361,1.5361,1.5362,1.5433,1.5435,1.5437,1.5439,1.5474,1.5473,1.5472,1.5427,0,0,1.5471,1.5471,0,0,0,0,0,0,0,0,1.5327,1.5328,1.5357,1.5361,1.5366,1.5395,1.537,1.5384,1.5433,1.5408,1.5438,1.544,1.5445,1.5447,1.545,1.5428,1.543,1.5471,1.547,1.547,1.547,0,0,0,0,0,0,0,1.5325,1.5327,1.5338,1.5358,1.5363,1.538,1.5385,1.5373,1.5414,1.5411,1.5416,1.542,1.5448,1.545,1.5451,1.543,1.5471,1.547,1.547,1.547,1.5373,1.537,0,0,0,0,0,0,1.5318,1.5325,1.5337,1.5339,1.5351,1.5378,1.5384,1.5383,1.5415,1.5422,1.5418,1.5423,1.545,1.5451,1.5452,1.5399,1.547,1.547,1.5469,1.5375,1.5372,1.537,0,0,0,0,0,0,1.5318,1.5319,1.5335,1.5334,1.5337,1.5376,1.5375,1.5383,1.5385,1.542,1.5428,1.5412,1.5452,1.5453,1.5433,1.5402,1.5469,1.5469,1.5377,1.5374,1.5371,1.5294,0,0,0,0,0,0,1.5317,1.5318,1.5302,1.5333,1.5337,1.5315,1.5373,1.5382,1.5384,1.5391,1.5417,1.5423,1.5453,1.5433,1.5432,1.5402,1.5468,1.538,1.5376,1.5372,1.5299,1.5288,1.5279,0,0,0,0,0,1.5316,1.5278,1.53,1.5301,1.5317,1.5313,1.5315,1.5352,1.5382,1.5365,1.5387,1.5422,1.5406,1.543,1.543,1.5399,1.5382,1.5377,1.5372,1.5304,1.529,1.5279,0,0,0,0,0,0,1.5241,1.5283,1.5308,1.5279,1.5292,1.5325,1.5305,1.5337,1.5341,1.5347,1.5391,1.5396,1.5369,1.5383,1.5409,1.5356,1.54,1.5394,1.5348,1.5335,1.5325,1.5321,1.5468,0,0,0,0,0,1.5221,1.5215,1.5252,1.5222,1.5228,1.5265,1.5265,1.5292,1.5307,1.5312,1.5334,1.5346,1.5343,1.5341,1.5341,1.5303,1.5308,1.5281,1.5271,1.5263,1.5256,1.5236,1.5224,1.5353,1.5353,1.5353,0,0,1.5179,1.5201,1.5195,1.5208,1.5221,1.5213,1.5269,1.5258,1.5252,1.531,1.5292,1.5308,1.5325,1.5295,1.5283,1.5305,1.5222,1.5256,1.5249,1.5248,1.5229,1.5217,1.5206,1.535,1.535,1.5351,0,0,1.5098,1.5115,1.5092,1.5105,1.5125,1.515,1.5145,1.5174,1.5187,1.5169,1.5213,1.5206,1.5201,1.5211,1.5215,1.5139,1.517,1.5138,1.5083,1.5062,1.5052,1.5043,1.5014,1.5003,1.5132,1.5132,1.5132,0,1.5043,1.5033,1.5076,1.5062,1.5065,1.512,1.5096,1.5106,1.5124,1.5125,1.5151,1.5146,1.5161,1.5133,1.5114,1.5117,1.511,1.5133,1.5051,1.5042,1.5034,1.5007,1.4996,1.5128,1.5128,1.5129,1.5129,0,1.4963,1.4956,1.4935,1.4952,1.4954,1.4935,1.4973,1.497,1.4997,1.502,1.5001,1.5021,1.5025,1.5022,1.5048,1.4997,1.501,1.5043,1.5087,1.5017,1.4991,1.4981,1.5121,1.5123,1.5124,1.5125,0,0,1.4832,1.4875,1.4866,1.4874,1.4901,1.4896,1.4879,1.4885,1.488,1.4892,1.4877,1.4873,1.4903,1.4908,1.4936,1.4918,1.4854,1.4953,1.4954,1.4931,1.4797,1.477,1.4757,1.4876,1.4875,1.4873,1.4794,0,1.4755,1.473,1.4768,1.4733,1.4726,1.4778,1.4764,1.4778,1.4799,1.4795,1.4818,1.4813,1.4854,1.4857,1.4842,1.4865,1.4827,1.4871,1.4861,1.486,1.4852,1.4744,1.4716,1.464,1.4785,1.4783,1.4782,0,1.4661,1.4668,1.4633,1.4662,1.466,1.4646,1.4654,1.4651,1.4668,1.4684,1.469,1.4724,1.4709,1.4754,1.4732,1.4761,1.476,1.477,1.4768,1.4766,1.4814,1.4736,1.4618,1.4605,1.4767,1.4769,1.477,0,1.4565,1.4568,1.4546,1.4552,1.4586,1.4575,1.4588,1.4608,1.4609,1.4616,1.4616,1.4621,1.4622,1.4625,1.4659,1.4689,1.4632,1.468,1.4643,1.4641,1.4626,1.4625,1.4502,1.463,1.463,1.463,1.463,0,1.4473,1.4449,1.4504,1.449,1.4464,1.4509,1.4482,1.45,1.4517,1.4507,1.4554,1.4543,1.4591,1.4585,1.4612,1.4588,1.4589,1.46,1.4607,1.4594,1.4592,1.4591,1.4596,1.4627,1.4628,1.4628,1.4629,0,1.4361,1.4398,1.4377,1.4412,1.442,1.4399,1.4428,1.4416,1.4441,1.4428,1.4427,1.4466,1.4461,1.4496,1.4499,1.4517,1.4479,1.4497,1.4473,1.4477,1.4437,1.4439,1.4306,1.429,1.443,1.4429,1.4428,0,1.4298,1.4281,1.4314,1.4311,1.4322,1.4318,1.4319,1.4363,1.4362,1.4381,1.4366,1.4366,1.4368,1.4358,1.4385,1.4387,1.4403,1.4356,1.4403,1.439,1.4398,1.4398,1.4395,1.4345,1.4343,1.4342,1.434,0,1.4181,1.4201,1.4202,1.4208,1.4209,1.4217,1.4227,1.4222,1.4269,1.4266,1.4263,1.4264,1.4267,1.4265,1.4272,1.4285,1.4319,1.4326,1.4317,1.4302,1.4288,1.4292,1.4443,1.4328,1.4329,1.433,1.4331,1.4331,1.409,1.4077,1.4098,1.4097,1.411,1.4119,1.4109,1.4133,1.4132,1.4138,1.4164,1.4156,1.4173,1.4187,1.4196,1.4189,1.4212,1.4199,1.4195,1.4191,1.4182,1.4292,1.4191,1.4192,1.4192,1.4192,1.4193,0,1.3974,1.3991,1.399,1.4003,1.4002,1.4038,1.4051,1.4047,1.404,1.4054,1.4055,1.4051,1.405,1.4078,1.408,1.4069,1.4084,1.4067,1.4067,1.4069,1.4163,1.417,1.4055,1.4055,1.4055,1.4055,1.4055,1.4055,1.3913,1.3891,1.3913,1.3898,1.3915,1.3908,1.3912,1.392,1.3932,1.3925,1.3925,1.3944,1.3963,1.3967,1.3967,1.3975,1.3972,1.3949,1.3962,1.4049,1.4062,1.4075,1.4081,1.3949,1.3949,1.3868,1.3867,1.3867]}]]